﻿ブイ番号,年月日,時刻,流向,流速(kt),流向(10m),流速(10m)(kt),流向(30m),流速(30m)(kt),流向(100m),流速(100m)(kt),浮体方位,水温,風向,風速(m／s),波数,最高波高,最高波周期,1／10最大波高,1／10最大波周期,有義波高,有義波周期,平均波高,平均波周期,波向
B13,2023-05-01,00:00:00,,,294,0.6706263498920086,284,0.5598272138228941,203.0,0.520950323974082,87,17.7,305,8.13,,,,,,,,,,
B13,2023-05-01,01:00:00,,,290,0.44902807775377973,250,0.4393088552915767,205.0,0.4995680345572354,68,17.8,319,8.04,,,,,,,,,,
B13,2023-05-01,02:00:00,,,308,0.5306695464362851,288,0.3907127429805616,209.0,0.4995680345572354,60,17.9,319,7.51,,,,,,,,,,
B13,2023-05-01,03:00:00,,,329,0.13995680345572353,232,0.4393088552915767,234.0,0.5695464362850972,71,17.9,317,7.59,,,,,,,,,,
B13,2023-05-01,04:00:00,,,213,0.12051835853131748,229,0.3207343412526998,248.0,0.41987041036717065,44,17.9,315,7.38,,,,,,,,,,
B13,2023-05-01,05:00:00,,,183,0.2002159827213823,224,0.37904967602591794,224.0,0.34017278617710583,341,17.8,317,7.07,,,,,,,,,,
B13,2023-05-01,06:00:00,,,173,0.4295896328293737,208,0.4606911447084234,224.0,0.3693304535637149,338,17.8,317,8.46,,,,,,,,,,
B13,2023-05-01,07:00:00,,,169,0.5695464362850972,211,0.4801295896328294,207.0,0.34017278617710583,335,17.7,327,8.42,,,,,,,,,,
B13,2023-05-01,08:00:00,,,168,0.7308855291576674,201,0.5501079913606911,237.0,0.21965442764578835,329,17.7,331,6.58,,,,,,,,,,
B13,2023-05-01,09:00:00,,,178,0.7308855291576674,209,0.5092872570194384,229.0,0.3207343412526998,341,17.7,329,8.55,,,,,,,,,,
B13,2023-05-01,10:00:00,,,181,0.7095032397408207,215,0.4704103671706264,,0.0,339,17.8,323,6.41,,,,,,,,,,
B13,2023-05-01,11:00:00,,,178,0.7095032397408207,208,0.44902807775377973,,,343,17.9,331,8.68,,,,,,,,,,
B13,2023-05-01,12:00:00,,,189,0.870842332613391,201,0.5909287257019439,,,350,18.0,320,9.75,,,,,,,,,,
B13,2023-05-01,13:00:00,,,201,0.890280777537797,219,0.6706263498920086,,,3,18.1,327,9.26,,,,,,,,,,
B13,2023-05-01,14:00:00,,,230,1.0807775377969762,231,0.8203023758099353,,,13,18.3,323,7.73,,,,,,,,,,
B13,2023-05-01,15:00:00,,,238,1.0302375809935205,241,0.7794816414686825,,,19,18.3,331,6.98,,,,,,,,,,
B13,2023-05-01,16:00:00,,,253,0.6609071274298056,253,0.6006479481641469,,,44,18.5,316,8.48,,,,,,,,,,
B13,2023-05-01,17:00:00,,,244,0.4606911447084234,258,0.21965442764578835,,,43,18.6,305,8.62,,,,,,,,,,
B13,2023-05-01,18:00:00,,,249,0.2390928725701944,230,0.14967602591792656,,0.0,47,18.5,315,8.12,,,,,,,,,,
B13,2023-05-01,19:00:00,,,227,0.1691144708423326,215,0.14967602591792656,189.0,0.12051835853131748,46,18.5,317,8.59,,,,,,,,,,
B13,2023-05-01,20:00:00,,,227,0.27991360691144707,161,0.12051835853131748,212.0,0.30907127429805614,39,18.4,324,7.22,,,,,,,,,,
B13,2023-05-01,21:00:00,,,249,0.5403887688984881,234,0.27019438444924404,169.0,0.22937365010799138,50,18.7,330,8.91,,,,,,,,,,
B13,2023-05-01,22:00:00,,,268,0.6103671706263499,246,0.4704103671706264,175.0,0.4393088552915767,62,18.7,324,8.61,,,,,,,,,,
B13,2023-05-01,23:00:00,,,277,0.5092872570194384,253,0.4004319654427646,177.0,0.34017278617710583,66,18.7,334,7.8,,,,,,,,,,
B13,2023-05-02,00:00:00,,,292,0.5092872570194384,239,0.2993520518358531,183.0,0.34989200863930886,70,18.7,324,7.08,,,,,,,,,,
B13,2023-05-02,01:00:00,,,286,0.4004319654427646,242,0.3304535637149028,191.0,0.34989200863930886,77,18.7,343,6.96,,,,,,,,,,
B13,2023-05-02,02:00:00,,,299,0.48984881209503245,288,0.37904967602591794,202.0,0.4393088552915767,97,18.7,352,5.85,,,,,,,,,,
B13,2023-05-02,03:00:00,,,265,0.21965442764578835,229,0.4704103671706264,231.0,0.3207343412526998,52,18.7,334,5.26,,,,,,,,,,
B13,2023-05-02,04:00:00,,,339,0.19049676025917928,266,0.27991360691144707,218.0,0.37904967602591794,33,18.7,334,5.81,,,,,,,,,,
B13,2023-05-02,05:00:00,,,358,0.06025917926565874,5,0.09913606911447084,232.0,0.3907127429805616,5,18.7,334,5.85,,,,,,,,,,
B13,2023-05-02,06:00:00,,,163,0.260475161987041,207,0.34017278617710583,222.0,0.22937365010799138,355,18.7,329,6.5,,,,,,,,,,
B13,2023-05-02,07:00:00,,,160,0.2993520518358531,206,0.27991360691144707,214.0,0.15939524838012958,336,18.7,327,7.06,,,,,,,,,,
B13,2023-05-02,08:00:00,,,176,0.4004319654427646,207,0.4393088552915767,229.0,0.260475161987041,337,18.7,324,7.08,,,,,,,,,,
B13,2023-05-02,09:00:00,,,169,0.520950323974082,205,0.4295896328293737,234.0,0.27991360691144707,323,18.7,330,6.43,,,,,,,,,,
B13,2023-05-02,10:00:00,,,174,0.3596112311015119,217,0.3304535637149028,225.0,0.11079913606911447,333,18.7,327,5.78,,,,,,,,,,
B13,2023-05-02,11:00:00,,,189,0.44902807775377973,219,0.3693304535637149,244.0,0.019438444924406047,332,18.8,320,4.64,,,,,,,,,,
B13,2023-05-02,12:00:00,,,193,0.3907127429805616,222,0.27991360691144707,268.0,0.15939524838012958,328,19.0,316,2.64,,,,,,,,,,
B13,2023-05-02,13:00:00,,,194,0.5695464362850972,226,0.4393088552915767,250.0,0.18077753779697625,339,19.2,320,3.09,,,,,,,,,,
B13,2023-05-02,14:00:00,,,203,0.5695464362850972,227,0.5695464362850972,241.0,0.1691144708423326,5,19.4,310,3.58,,,,,,,,,,
B13,2023-05-02,15:00:00,,,218,0.6900647948164147,230,0.4995680345572354,270.0,0.27991360691144707,14,19.5,320,2.73,,,,,,,,,,
B13,2023-05-02,16:00:00,,,231,0.520950323974082,242,0.34017278617710583,275.0,0.2002159827213823,31,19.8,299,0.78,,,,,,,,,,
B13,2023-05-02,17:00:00,,,244,0.48984881209503245,231,0.27991360691144707,247.0,0.13995680345572353,47,19.9,87,1.29,,,,,,,,,,
B13,2023-05-02,18:00:00,,,240,0.4393088552915767,213,0.27991360691144707,242.0,0.27991360691144707,38,19.6,127,2.45,,,,,,,,,,
B13,2023-05-02,19:00:00,,,239,0.2390928725701944,220,0.20993520518358533,251.0,0.2390928725701944,49,19.4,135,2.76,,,,,,,,,,
B13,2023-05-02,20:00:00,,,249,0.3907127429805616,239,0.41987041036717065,179.0,0.2390928725701944,57,19.0,132,4.02,,,,,,,,,,
B13,2023-05-02,21:00:00,,,256,0.37904967602591794,229,0.3304535637149028,183.0,0.30907127429805614,76,19.0,133,5.1,,,,,,,,,,
B13,2023-05-02,22:00:00,,,263,0.260475161987041,221,0.27991360691144707,170.0,0.3907127429805616,121,18.9,126,5.43,,,,,,,,,,
B13,2023-05-02,23:00:00,,,228,0.15939524838012958,200,0.3207343412526998,178.0,0.4606911447084234,110,18.8,133,5.16,,,,,,,,,,
B13,2023-05-03,00:00:00,,,201,0.11079913606911447,187,0.27991360691144707,201.0,0.4004319654427646,132,18.7,147,4.4,,,,,,,,,,
B13,2023-05-03,01:00:00,,,222,0.13995680345572353,211,0.30907127429805614,211.0,0.3596112311015119,116,18.7,156,3.13,,,,,,,,,,
B13,2023-05-03,02:00:00,,,213,0.14967602591792656,223,0.260475161987041,222.0,0.41015118790496763,165,18.8,167,3.7,,,,,,,,,,
B13,2023-05-03,03:00:00,,,229,0.14967602591792656,217,0.27019438444924404,233.0,0.41015118790496763,156,18.9,168,2.82,,,,,,,,,,
B13,2023-05-03,04:00:00,,,214,0.3693304535637149,211,0.4606911447084234,241.0,0.5306695464362851,179,18.8,116,3.11,,,,,,,,,,
B13,2023-05-03,05:00:00,,,225,0.3596112311015119,215,0.4295896328293737,269.0,0.8105831533477322,185,18.7,78,4.54,,,,,,,,,,
B13,2023-05-03,06:00:00,,,259,0.19049676025917928,249,0.21965442764578835,244.0,0.4295896328293737,95,18.7,47,6.58,,,,,,,,,,
B13,2023-05-03,07:00:00,,,216,0.13995680345572353,234,0.13995680345572353,248.0,0.18077753779697625,64,18.7,49,6.65,,,,,,,,,,
B13,2023-05-03,08:00:00,,,222,0.2390928725701944,212,0.27991360691144707,226.0,0.06025917926565874,38,18.7,52,7.57,,,,,,,,,,
B13,2023-05-03,09:00:00,,,221,0.27019438444924404,212,0.3207343412526998,218.0,0.12051835853131748,48,18.7,54,8.39,,,,,,,,,,
B13,2023-05-03,10:00:00,,,194,0.260475161987041,195,0.37904967602591794,225.0,0.09913606911447084,11,18.8,68,8.8,,,,,,,,,,
B13,2023-05-03,11:00:00,,,176,0.20993520518358533,181,0.250755939524838,209.0,0.07969762419006479,41,18.8,61,9.1,,,,,,,,,,
B13,2023-05-03,12:00:00,,,206,0.3907127429805616,208,0.41015118790496763,237.0,0.07969762419006479,25,18.9,63,7.97,,,,,,,,,,
B13,2023-05-03,13:00:00,,,220,0.34989200863930886,215,0.3693304535637149,217.0,0.27019438444924404,55,18.9,67,7.85,,,,,,,,,,
B13,2023-05-03,14:00:00,,,252,0.4801295896328294,234,0.3907127429805616,218.0,0.250755939524838,62,19.0,68,7.07,,,,,,,,,,
B13,2023-05-03,15:00:00,,,249,0.4995680345572354,242,0.5501079913606911,218.0,0.3693304535637149,65,19.0,77,7.3,,,,,,,,,,
B13,2023-05-03,16:00:00,,,269,0.4606911447084234,255,0.5598272138228941,217.0,0.22937365010799138,83,19.0,78,6.6,,,,,,,,,,
B13,2023-05-03,17:00:00,,,257,0.5909287257019439,233,0.5909287257019439,220.0,0.4995680345572354,76,19.0,82,6.9,,,,,,,,,,
B13,2023-05-03,18:00:00,,,257,0.44902807775377973,238,0.44902807775377973,211.0,0.5092872570194384,86,19.0,84,7.55,,,,,,,,,,
B13,2023-05-03,19:00:00,,,300,0.34017278617710583,271,0.3207343412526998,209.0,0.37904967602591794,104,18.9,81,6.53,,,,,,,,,,
B13,2023-05-03,20:00:00,,,301,0.2002159827213823,254,0.18077753779697625,212.0,0.4295896328293737,125,18.9,82,7.51,,,,,,,,,,
B13,2023-05-03,21:00:00,,,317,0.22937365010799138,295,0.21965442764578835,215.0,0.48984881209503245,133,18.9,85,7.81,,,,,,,,,,
B13,2023-05-03,22:00:00,,,321,0.12051835853131748,277,0.13995680345572353,211.0,0.4295896328293737,144,18.9,88,7.29,,,,,,,,,,
B13,2023-05-03,23:00:00,,,249,0.11079913606911447,236,0.22937365010799138,217.0,0.5092872570194384,116,18.9,75,7.44,,,,,,,,,,
B13,2023-05-04,00:00:00,,,204,0.2002159827213823,222,0.20993520518358533,222.0,0.48984881209503245,113,18.9,77,6.3,,,,,,,,,,
B13,2023-05-04,01:00:00,,,187,0.1302375809935205,213,0.2002159827213823,223.0,0.44902807775377973,114,18.9,82,4.61,,,,,,,,,,
B13,2023-05-04,02:00:00,,,175,0.2390928725701944,215,0.30907127429805614,245.0,0.5403887688984881,4,18.8,71,4.15,,,,,,,,,,
B13,2023-05-04,03:00:00,,,204,0.250755939524838,230,0.27991360691144707,241.0,0.4704103671706264,20,18.8,64,4.99,,,,,,,,,,
B13,2023-05-04,04:00:00,,,210,0.20993520518358533,239,0.27991360691144707,245.0,0.620086393088553,29,18.9,85,5.81,,,,,,,,,,
B13,2023-05-04,05:00:00,,,221,0.3207343412526998,244,0.37904967602591794,257.0,0.7406047516198704,28,18.8,75,6.25,,,,,,,,,,
B13,2023-05-04,06:00:00,,,196,0.20993520518358533,209,0.2390928725701944,250.0,0.37904967602591794,58,18.9,87,7.16,,,,,,,,,,
B13,2023-05-04,07:00:00,,,212,0.27991360691144707,221,0.260475161987041,256.0,0.14967602591792656,28,18.9,73,7.03,,,,,,,,,,
B13,2023-05-04,08:00:00,,,212,0.48984881209503245,212,0.41987041036717065,266.0,0.260475161987041,13,18.9,87,5.84,,,,,,,,,,
B13,2023-05-04,09:00:00,,,221,0.260475161987041,225,0.30907127429805614,257.0,0.1691144708423326,17,18.9,126,5.7,,,,,,,,,,
B13,2023-05-04,10:00:00,,,228,0.2993520518358531,231,0.260475161987041,197.0,0.09913606911447084,220,18.9,143,6.36,,,,,,,,,,
B13,2023-05-04,11:00:00,,,233,0.3596112311015119,240,0.30907127429805614,213.0,0.1302375809935205,221,18.9,140,5.99,,,,,,,,,,
B13,2023-05-04,12:00:00,,,244,0.34989200863930886,252,0.2390928725701944,218.0,0.07969762419006479,236,18.9,99,5.96,,,,,,,,,,
B13,2023-05-04,13:00:00,,,236,0.27019438444924404,232,0.21965442764578835,208.0,0.08941684665226782,227,19.0,98,4.37,,,,,,,,,,
B13,2023-05-04,14:00:00,,,247,0.34017278617710583,241,0.250755939524838,215.0,0.1302375809935205,251,19.0,97,5.01,,,,,,,,,,
B13,2023-05-04,15:00:00,,,261,0.260475161987041,250,0.15939524838012958,219.0,0.1302375809935205,276,19.1,109,5.16,,,,,,,,,,
B13,2023-05-04,16:00:00,,,288,0.3207343412526998,272,0.27019438444924404,223.0,0.08941684665226782,319,19.1,111,3.45,,,,,,,,,,
B13,2023-05-04,17:00:00,,,256,0.4004319654427646,257,0.2993520518358531,225.0,0.20993520518358533,258,19.0,118,4.08,,,,,,,,,,
B13,2023-05-04,18:00:00,,,260,0.37904967602591794,244,0.27991360691144707,208.0,0.30907127429805614,259,19.0,120,4.22,,,,,,,,,,
B13,2023-05-04,19:00:00,,,236,0.2993520518358531,244,0.260475161987041,233.0,0.4801295896328294,242,19.0,106,3.63,,,,,,,,,,
B13,2023-05-04,20:00:00,,,230,0.34989200863930886,222,0.30907127429805614,226.0,0.4801295896328294,233,19.0,115,4.51,,,,,,,,,,
B13,2023-05-04,21:00:00,,,217,0.27991360691144707,199,0.2993520518358531,238.0,0.3907127429805616,215,18.9,116,4.61,,,,,,,,,,
B13,2023-05-04,22:00:00,,,251,0.1302375809935205,218,0.1691144708423326,236.0,0.3596112311015119,158,18.9,113,4.46,,,,,,,,,,
B13,2023-05-04,23:00:00,,,188,0.20993520518358533,192,0.4004319654427646,244.0,0.4393088552915767,187,18.9,120,4.57,,,,,,,,,,
B13,2023-05-05,00:00:00,,,231,0.1302375809935205,212,0.260475161987041,254.0,0.3596112311015119,232,18.9,120,4.68,,,,,,,,,,
B13,2023-05-05,01:00:00,,,279,0.06025917926565874,246,0.2002159827213823,251.0,0.2390928725701944,169,18.9,127,5.0,,,,,,,,,,
B13,2023-05-05,02:00:00,,,3,0.0408207343412527,252,0.07969762419006479,256.0,0.2002159827213823,195,18.9,118,4.69,,,,,,,,,,
B13,2023-05-05,03:00:00,,,275,0.06997840172786177,225,0.260475161987041,262.0,0.22937365010799138,223,18.9,112,4.4,,,,,,,,,,
B13,2023-05-05,04:00:00,,,198,0.20993520518358533,227,0.2390928725701944,285.0,0.2993520518358531,179,18.9,111,4.97,,,,,,,,,,
B13,2023-05-05,05:00:00,,,201,0.20993520518358533,214,0.27019438444924404,231.0,0.250755939524838,185,18.9,113,4.73,,,,,,,,,,
B13,2023-05-05,06:00:00,,,186,0.3693304535637149,211,0.2993520518358531,227.0,0.250755939524838,192,18.9,118,4.6,,,,,,,,,,
B13,2023-05-05,07:00:00,,,200,0.4801295896328294,211,0.3907127429805616,256.0,0.19049676025917928,202,18.9,115,5.32,,,,,,,,,,
B13,2023-05-05,08:00:00,,,204,0.34017278617710583,213,0.260475161987041,206.0,0.11079913606911447,203,18.9,118,5.33,,,,,,,,,,
B13,2023-05-05,09:00:00,,,183,0.3304535637149028,184,0.27019438444924404,220.0,0.08941684665226782,202,18.9,127,5.38,,,,,,,,,,
B13,2023-05-05,10:00:00,,,192,0.3207343412526998,186,0.3207343412526998,,0.0,190,19.0,129,5.36,,,,,,,,,,
B13,2023-05-05,11:00:00,,,233,0.20993520518358533,220,0.15939524838012958,133.0,0.009719222462203024,242,19.2,119,4.95,,,,,,,,,,
B13,2023-05-05,12:00:00,,,246,0.09913606911447084,208,0.06997840172786177,181.0,0.019438444924406047,72,19.3,123,5.04,,,,,,,,,,
B13,2023-05-05,13:00:00,,,235,0.13995680345572353,226,0.15939524838012958,,0.0,70,19.3,135,5.33,,,,,,,,,,
B13,2023-05-05,14:00:00,,,250,0.260475161987041,238,0.22937365010799138,174.0,0.13995680345572353,104,19.6,147,5.38,,,,,,,,,,
B13,2023-05-05,15:00:00,,,241,0.3207343412526998,233,0.27019438444924404,,0.0,70,19.6,139,4.5,,,,,,,,,,
B13,2023-05-05,16:00:00,,,250,0.18077753779697625,227,0.18077753779697625,,0.0,132,19.6,144,4.08,,,,,,,,,,
B13,2023-05-05,17:00:00,,,260,0.15939524838012958,225,0.20993520518358533,,0.0,218,19.4,147,4.28,,,,,,,,,,
B13,2023-05-05,18:00:00,,,244,0.2002159827213823,223,0.260475161987041,209.0,0.06997840172786177,111,19.3,151,4.97,,,,,,,,,,
B13,2023-05-05,19:00:00,,,225,0.20993520518358533,218,0.2993520518358531,218.0,0.13995680345572353,247,19.3,160,5.08,,,,,,,,,,
B13,2023-05-05,20:00:00,,,197,0.250755939524838,200,0.3304535637149028,226.0,0.3907127429805616,298,19.3,154,4.58,,,,,,,,,,
B13,2023-05-05,21:00:00,,,212,0.3207343412526998,215,0.37904967602591794,220.0,0.30907127429805614,233,19.3,154,5.37,,,,,,,,,,
B13,2023-05-05,22:00:00,,,196,0.19049676025917928,208,0.250755939524838,228.0,0.27991360691144707,295,19.2,156,5.33,,,,,,,,,,
B13,2023-05-05,23:00:00,,,187,0.2002159827213823,204,0.2002159827213823,280.0,0.2390928725701944,284,19.2,154,5.36,,,,,,,,,,
B13,2023-05-06,00:00:00,,,203,0.14967602591792656,205,0.15939524838012958,281.0,0.27991360691144707,299,19.2,156,4.65,,,,,,,,,,
B13,2023-05-06,01:00:00,,,201,0.2390928725701944,207,0.27019438444924404,261.0,0.2002159827213823,321,19.2,158,4.82,,,,,,,,,,
B13,2023-05-06,02:00:00,,,211,0.20993520518358533,209,0.2390928725701944,245.0,0.19049676025917928,276,19.2,151,4.92,,,,,,,,,,
B13,2023-05-06,03:00:00,,,214,0.260475161987041,228,0.260475161987041,281.0,0.30907127429805614,242,19.2,154,4.7,,,,,,,,,,
B13,2023-05-06,04:00:00,,,217,0.18077753779697625,277,0.21965442764578835,303.0,0.21965442764578835,273,19.2,167,3.46,,,,,,,,,,
B13,2023-05-06,05:00:00,,,225,0.1691144708423326,267,0.2002159827213823,313.0,0.08941684665226782,298,19.2,140,3.94,,,,,,,,,,
B13,2023-05-06,06:00:00,,,225,0.20993520518358533,231,0.1691144708423326,245.0,0.06997840172786177,224,19.2,156,4.9,,,,,,,,,,
B13,2023-05-06,07:00:00,,,206,0.27991360691144707,196,0.250755939524838,196.0,0.1691144708423326,227,19.2,156,6.19,,,,,,,,,,
B13,2023-05-06,08:00:00,,,213,0.37904967602591794,221,0.30907127429805614,186.0,0.19049676025917928,229,19.2,163,5.25,,,,,,,,,,
B13,2023-05-06,09:00:00,,,207,0.3304535637149028,207,0.250755939524838,173.0,0.009719222462203024,234,19.3,161,6.0,,,,,,,,,,
B13,2023-05-06,10:00:00,,,200,0.250755939524838,202,0.20993520518358533,220.0,0.0408207343412527,226,19.4,174,6.31,,,,,,,,,,
B13,2023-05-06,11:00:00,,,243,0.09913606911447084,195,0.07969762419006479,188.0,0.029157667386609073,168,19.4,184,7.87,,,,,,,,,,
B13,2023-05-06,12:00:00,,,241,0.06997840172786177,188,0.08941684665226782,,0.0,254,19.4,182,8.15,,,,,,,,,,
B13,2023-05-06,13:00:00,,,228,0.05053995680345572,183,0.05053995680345572,199.0,0.019438444924406047,262,19.4,178,7.33,,,,,,,,,,
B13,2023-05-06,14:00:00,,,230,0.19049676025917928,215,0.20993520518358533,230.0,0.06025917926565874,270,19.4,185,8.32,,,,,,,,,,
B13,2023-05-06,15:00:00,,,246,0.22937365010799138,241,0.22937365010799138,244.0,0.1691144708423326,114,19.4,185,8.96,,,,,,,,,,
B13,2023-05-06,16:00:00,,,210,0.260475161987041,222,0.2390928725701944,247.0,0.08941684665226782,314,19.4,181,8.05,,,,,,,,,,
B13,2023-05-06,17:00:00,,,249,0.14967602591792656,239,0.18077753779697625,248.0,0.06025917926565874,251,19.3,187,8.66,,,,,,,,,,
B13,2023-05-06,18:00:00,,,258,0.12051835853131748,255,0.2390928725701944,260.0,0.09913606911447084,247,19.4,180,8.93,,,,,,,,,,
B13,2023-05-06,19:00:00,,,279,0.12051835853131748,256,0.15939524838012958,279.0,0.20993520518358533,248,19.4,187,7.74,,,,,,,,,,
B13,2023-05-06,20:00:00,,,191,0.27991360691144707,213,0.37904967602591794,239.0,0.18077753779697625,237,19.4,188,9.21,,,,,,,,,,
B13,2023-05-06,21:00:00,,,224,0.2993520518358531,229,0.3304535637149028,256.0,0.21965442764578835,318,19.3,189,9.98,,,,,,,,,,
B13,2023-05-06,22:00:00,,,226,0.2002159827213823,246,0.27991360691144707,267.0,0.260475161987041,252,19.3,185,9.25,,,,,,,,,,
B13,2023-05-06,23:00:00,,,185,0.13995680345572353,257,0.19049676025917928,282.0,0.20993520518358533,282,19.4,194,10.14,,,,,,,,,,
B13,2023-05-07,00:00:00,,,196,0.09913606911447084,268,0.15939524838012958,271.0,0.15939524838012958,292,19.7,194,8.93,,,,,,,,,,
B13,2023-05-07,01:00:00,,,195,0.1691144708423326,284,0.21965442764578835,293.0,0.22937365010799138,298,19.9,192,8.44,,,,,,,,,,
B13,2023-05-07,02:00:00,,,200,0.1302375809935205,275,0.13995680345572353,302.0,0.22937365010799138,323,19.9,191,8.82,,,,,,,,,,
B13,2023-05-07,03:00:00,,,241,0.14967602591792656,299,0.19049676025917928,290.0,0.12051835853131748,296,19.9,196,9.39,,,,,,,,,,
B13,2023-05-07,04:00:00,,,268,0.06997840172786177,314,0.09913606911447084,307.0,0.1302375809935205,292,19.9,199,8.88,,,,,,,,,,
B13,2023-05-07,05:00:00,,,226,0.11079913606911447,258,0.09913606911447084,310.0,0.11079913606911447,311,19.9,199,7.21,,,,,,,,,,
B13,2023-05-07,06:00:00,,,182,0.260475161987041,193,0.21965442764578835,287.0,0.06997840172786177,303,19.9,195,7.49,,,,,,,,,,
B13,2023-05-07,07:00:00,,,210,0.14967602591792656,215,0.19049676025917928,192.0,0.05053995680345572,243,19.9,194,8.3,,,,,,,,,,
B13,2023-05-07,08:00:00,,,194,0.2390928725701944,210,0.1691144708423326,218.0,0.05053995680345572,194,19.9,180,6.92,,,,,,,,,,
B13,2023-05-07,09:00:00,,,198,0.3304535637149028,192,0.27991360691144707,199.0,0.13995680345572353,313,19.9,234,7.59,,,,,,,,,,
B13,2023-05-07,10:00:00,,,198,0.2390928725701944,193,0.21965442764578835,162.0,0.18077753779697625,303,20.0,203,5.23,,,,,,,,,,
B13,2023-05-07,11:00:00,,,197,0.22937365010799138,193,0.2390928725701944,198.0,0.11079913606911447,276,20.0,209,5.57,,,,,,,,,,
B13,2023-05-07,12:00:00,,,219,0.20993520518358533,208,0.18077753779697625,252.0,0.06025917926565874,296,20.0,199,5.73,,,,,,,,,,
B13,2023-05-07,13:00:00,,,230,0.18077753779697625,212,0.21965442764578835,239.0,0.019438444924406047,310,20.0,175,4.48,,,,,,,,,,
B13,2023-05-07,14:00:00,,,209,0.18077753779697625,202,0.19049676025917928,262.0,0.029157667386609073,249,19.9,199,7.68,,,,,,,,,,
B13,2023-05-07,15:00:00,,,271,0.15939524838012958,252,0.13995680345572353,298.0,0.08941684665226782,247,19.9,188,8.95,,,,,,,,,,
B13,2023-05-07,16:00:00,,,232,0.13995680345572353,203,0.20993520518358533,243.0,0.06025917926565874,233,19.9,180,8.99,,,,,,,,,,
B13,2023-05-07,17:00:00,,,231,0.18077753779697625,220,0.18077753779697625,285.0,0.09913606911447084,246,19.9,182,10.4,,,,,,,,,,
B13,2023-05-07,18:00:00,,,219,0.3207343412526998,213,0.3596112311015119,222.0,0.19049676025917928,236,19.9,180,10.87,,,,,,,,,,
B13,2023-05-07,19:00:00,,,249,0.21965442764578835,242,0.21965442764578835,286.0,0.27019438444924404,291,19.8,185,11.76,,,,,,,,,,
B13,2023-05-07,20:00:00,,,235,0.2002159827213823,243,0.20993520518358533,248.0,0.1302375809935205,218,19.8,192,13.22,,,,,,,,,,
B13,2023-05-07,21:00:00,,,213,0.22937365010799138,207,0.260475161987041,265.0,0.11079913606911447,287,19.8,196,14.29,,,,,,,,,,
B13,2023-05-07,22:00:00,,,251,0.1691144708423326,242,0.250755939524838,245.0,0.21965442764578835,284,19.7,210,13.36,,,,,,,,,,
B13,2023-05-07,23:00:00,,,213,0.260475161987041,235,0.41987041036717065,251.0,0.260475161987041,221,19.7,316,8.53,,,,,,,,,,
B13,2023-05-08,00:00:00,,,162,0.12051835853131748,277,0.27019438444924404,290.0,0.1691144708423326,294,19.7,320,12.38,,,,,,,,,,
B13,2023-05-08,01:00:00,,,167,0.20993520518358533,238,0.13995680345572353,183.0,0.05053995680345572,322,19.6,322,12.93,,,,,,,,,,
B13,2023-05-08,02:00:00,,,165,0.250755939524838,244,0.11079913606911447,246.0,0.0408207343412527,336,19.5,317,15.85,,,,,,,,,,
B13,2023-05-08,03:00:00,,,167,0.27991360691144707,172,0.15939524838012958,158.0,0.08941684665226782,336,19.4,320,18.15,,,,,,,,,,
B13,2023-05-08,04:00:00,,,174,0.30907127429805614,174,0.15939524838012958,106.0,0.0408207343412527,343,19.3,327,18.48,,,,,,,,,,
B13,2023-05-08,05:00:00,,,172,0.5306695464362851,170,0.27019438444924404,155.0,0.12051835853131748,347,19.2,324,15.95,,,,,,,,,,
B13,2023-05-08,06:00:00,,,187,0.4704103671706264,200,0.21965442764578835,147.0,0.09913606911447084,354,19.1,322,15.56,,,,,,,,,,
B13,2023-05-08,07:00:00,,,183,0.4004319654427646,176,0.20993520518358533,137.0,0.1691144708423326,357,19.1,324,13.77,,,,,,,,,,
B13,2023-05-08,08:00:00,,,198,0.4004319654427646,192,0.18077753779697625,170.0,0.2002159827213823,356,19.0,324,13.48,,,,,,,,,,
B13,2023-05-08,09:00:00,,,199,0.5092872570194384,191,0.27991360691144707,171.0,0.3304535637149028,2,19.0,330,12.3,,,,,,,,,,
B13,2023-05-08,10:00:00,,,201,0.6609071274298056,194,0.3304535637149028,169.0,0.3907127429805616,5,19.1,326,11.84,,,,,,,,,,
B13,2023-05-08,11:00:00,,,212,0.6706263498920086,185,0.4004319654427646,174.0,0.5598272138228941,5,19.1,326,11.03,,,,,,,,,,
B13,2023-05-08,12:00:00,,,216,0.37904967602591794,183,0.21965442764578835,166.0,0.20993520518358533,11,19.1,333,9.33,,,,,,,,,,
B13,2023-05-08,13:00:00,,,230,0.27991360691144707,197,0.13995680345572353,187.0,0.06025917926565874,24,19.1,334,7.17,,,,,,,,,,
B13,2023-05-08,14:00:00,,,273,0.37904967602591794,291,0.21965442764578835,169.0,0.09913606911447084,48,19.3,19,3.55,,,,,,,,,,
B13,2023-05-08,15:00:00,,,292,0.3596112311015119,321,0.14967602591792656,202.0,0.06997840172786177,70,19.4,338,0.9,,,,,,,,,,
B13,2023-05-08,16:00:00,,,294,0.5092872570194384,301,0.3304535637149028,227.0,0.12051835853131748,58,19.3,303,2.72,,,,,,,,,,
B13,2023-05-08,17:00:00,,,301,0.5306695464362851,312,0.27991360691144707,234.0,0.1691144708423326,78,19.4,319,3.3,,,,,,,,,,
B13,2023-05-08,18:00:00,,,320,0.3596112311015119,286,0.08941684665226782,242.0,0.260475161987041,74,19.3,341,4.25,,,,,,,,,,
B13,2023-05-08,19:00:00,,,312,0.2390928725701944,204,0.06997840172786177,240.0,0.22937365010799138,59,19.4,331,4.67,,,,,,,,,,
B13,2023-05-08,20:00:00,,,308,0.14967602591792656,214,0.22937365010799138,248.0,0.3907127429805616,311,19.1,344,5.56,,,,,,,,,,
B13,2023-05-08,21:00:00,,,260,0.0408207343412527,211,0.27019438444924404,228.0,0.3304535637149028,355,18.8,352,6.5,,,,,,,,,,